Showing default

COSMOS 2330, 23792

Orbit data source: Space-Track

COSMOS 2330, 23792 is a payload satellite owned by VKS (CIS) in LEO that was launched on Mon, 19 Feb 1996 UTC via a TSIKLON-3 launch vehicle from the Plesetsk Missile And Space Complex (PKMTR). Payloads include a variety of satellites, spacecraft, and rockets equipped with specific instruments for various scientific and technological missions. These include communications satellites like Starlink; space stations such as the ISS; scientific satellites like the Hubble; Earth observation satellites from companies like Planet Labs, Umbra, and HawkEye 360; GPS; miniature CubeSats for education and research; and military/defense satellites.

Loading next visibility...
COSMOS 2330 details
Identifier
23792, 1996-009F
Orbit
LEO
Last TLE update9 hours ago
Origin
Flag of CISVKS (CIS)
ManufacturerNPO PM
MissionNon-operational Defense Communications
Bus & MotorSTRELA-3, Unknown motor
Mass225 kg wet, 225 kg dry
Launch date (UTC)
1996-02-19 (29 years ago)
Launch vehicle
TSIKLON-3
Launch site
Plesetsk Missile And Space Complex (PKMTR)
Object type
Payload
Rocket body
Debris
Shape & HBRCyl + 1 Ant, 7 m
Radar Cross Section1.583 m², Medium (>0.1 m² and < 1m²)

Expand to show TLE details & history

TLE from 9 hours ago
0 COSMOS 2330
1 23792U 96009F   24361.42491280  .00000028  00000-0  99983-4 0  9995
2 23792  82.5817 326.0782 0010781 209.0109 151.0383 12.60958174328043
Epoch: 2024-12-26T10:11Z
Definitive object data (Epoch: 2024-12-26T10:11:52.465Z)
Latitude-0.00008°
Longitude77.70509°
Altitude1,429.078 km
Speed7.143 km/s
True Right ascension21h 44m 18s
True Declination0° 00' 00"
Sunlit
Object was in daylight at TLE epoch
Visualization TLE readout
Latitude3.06702°
Longitude-102.9193°
Altitude1,414.195 km
Speed7.157 km/s
Apparent Right ascension08h 20m 52s
Apparent Declination-17° 47' 26"
Sunlit
Object is in full shadow
Visualization observer readout
Local Sidereal Time18:07:34
Azimuth297.83° NW
Elevation-53.733°
Doppler factor1
Orbital elements
Apogee altitude1,424.718 km
Perigee altitude1,407.911 km
Semi-major axis7,794.452 km
Eccentricity0.0010781
Inclination82.5817°
RAAN326.0782°
Arg. of periapsis209.0109°
True anomaly151.09805°
Mean anomaly151.0383°
Eccentric anomaly151.06818°
Mean motion3.15402 °/min
BSTAR0.000099983
Orbital period114.14 mins
Loading maneuver chart data...
Loading historical data...
Loading historical data...
Loading historical data...
Loading historical data...
Loading historical data...
Loading historical data...
Loading historical data...

COSMOS 2330 Visibility forecast

Observer location: undefined°, undefined

Span
Click to sort rows by Start time (UTC) header in descending order
Start Az.
Max El. time (UTC)
Max El. Az.
Max El.
End time (UTC)
End Az.
14 mins2024-12-26 21:43:01.169Z152.421° SSE2024-12-26 21:50:01.169Z88.669° E33.982°2024-12-26 21:57:01.169Z23.129° NE
13 mins2024-12-26 23:39:01.169Z224.896° SW2024-12-26 23:45:01.169Z283.69° WNW32.677°2024-12-26 23:52:01.169Z350.723° N
8 mins2024-12-27 07:47:01.169Z32.494° NE2024-12-27 07:51:01.169Z63.797° ENE15.866°2024-12-27 07:55:01.169Z94.478° ESE
15 mins2024-12-27 09:40:01.169Z353.777° N2024-12-27 09:47:01.169Z41.684° NE44.826°2024-12-27 09:55:01.169Z172.179° S
8 mins2024-12-27 11:38:01.169Z307.884° NW2024-12-27 11:41:01.169Z283.567° WNW16.971°2024-12-27 11:46:01.169Z245.255° WSW
|